034  
ASUS43 KGRB 232011  
RWRGRB  
 
NORTH-CENTRAL AND NORTHEAST WISCONSIN REGIONAL WEATHER ROUNDUP  
NATIONAL WEATHER SERVICE GREEN BAY WI  
200 PM CST SUN FEB 23 2020  
 
WIZ005-009-010>012-018-019-232100-  
NORTH CENTRAL WISCONSIN  
 
CITY SKY/WX TMP DP RH WIND PRES REMARKS
 
IRONWOOD FAIR 45 25 45 W21G29 29.65R  
MANITOWISH WTR NOT AVBL  
ARBOR VITAE FAIR 48 28 46 W16G24 29.67S  
EAGLE RIVER FAIR 46 21 37 W18G24 29.65S  
LAND O LAKES FAIR 50 21 32 W13G24 29.64F  
RHINELANDER FAIR 45 25 45 W20G29 29.68S  
PHILLIPS FAIR 46 26 44 W9G22 29.71R  
ANTIGO FAIR 43 27 52 W18 29.72S  
TOMAHAWK FAIR 47 23 37 W14 29.72S  
MERRILL FAIR 46 27 48 W13G18 29.74S  

 
 
WIZ013-073-232100-  
NORTHEAST WISCONSIN  
 
CITY SKY/WX TMP DP RH WIND PRES REMARKS
 
IRON MOUNTAIN FAIR 51 23 33 W16G33 29.61F  
MARINETTE FAIR 48 27 44 SW16G22 29.70F  
OCONTO FAIR 47 27 45 SW13G20 29.73F  

 
 
WIZ017-030-035>037-045-232100-  
CENTRAL WISCONSIN  
 
CITY SKY/WX TMP DP RH WIND PRES REMARKS
 
MEDFORD FAIR 40 26 56 SW12 29.75F  
WAUSAU FAIR 44 26 49 W15G24 29.74S  
MOSINEE SUNNY 45 27 49 W14 29.77F  
MARSHFIELD FAIR 45 26 47 W12G18 29.77S  
WISC RAPIDS FAIR 50 25 37 W10 29.79F  
STEVENS POINT FAIR 48 25 40 W10G20 29.78S  
WAUPACA FAIR 52 24 33 W14 29.78S  
SHAWANO FAIR 51 27 39 SW13G20 29.73F  
CLINTONVILLE FAIR 48 25 40 SW10 29.75F  
WAUTOMA FAIR 51 26 37 W14 29.79F  

 
 
WIZ038-039-048-051-232100-  
FOX VALLEY  
 
CITY SKY/WX TMP DP RH WIND PRES REMARKS
 
NWS GREEN BAY FAIR 43 28 55 SW8 29.76F  
APPLETON SUNNY 45 21 39 SW12 29.76F  
OSHKOSH FAIR 44 28 53 S10 29.79F  
FOND DU LAC FAIR 45 29 53 SW12 29.82S  

 
 
WIZ022-050-052-232100-  
EAST CENTRAL WISCONSIN  
 
CITY SKY/WX TMP DP RH WIND PRES REMARKS
 
EPHRAIM FAIR 44 27 50 SW10G18 29.69F  
WASHINGTON ISL FAIR 42 28 58 SW14G21 29.68F  
STURGEON BAY FAIR 45 27 49 SW17G24 N/A  
MANITOWOC FAIR 45 27 49 SW16G22 29.79F  
SHEBOYGAN FAIR 43 28 55 SW14 29.81S  

 
 
LMZ563-521-522-541>543-232100-  
LAKESHORE  
 
STATION/POSITION TIME TEMP WIND PRES VSBY WAVE
 
AIR SEA DIR/SP/G HT/PER  
(UTC) (F) (DEG/KT/KT) (MB) (MI) (FT/S)  
SHEBOYGAN LKSHOR 2000 46 230/ 15/ 17 N/A  
KEWAUNEE LKSHORE 1930 46 230/ 5/ 9 1007.5F  
NORTHPORT PIER 1940 47 210/ 8/ 13 1005.4F  
SISTER BAY LKSHO 1957 49 250/ 16/ 19 N/A  
MENOMINEE LKSHOR 1930 43 35 190/ 11/ 14 1005.9F  

 
 
 
CLICK HERE TO GO TO PREVIOUS BULLETINS.

The Nexlab WI Page Main Text Page